Change the Weather History Date:

Saturday, January 25, 2014

  Actual Average (KSPI) Record (KSPI)
Temperature  
Mean Temperature 25 °F 27 °F  
Max Temperature 36 °F 35 °F 70 °F (1950)
Min Temperature 14 °F 19 °F -17 °F (1894)
Degree Days  
Heating Degree Days 40 38  
Month to date heating degree days 957  
Since 1 July heating degree days 3097  
Cooling Degree Days 0 0  
Month to date cooling degree days 0  
Year to date cooling degree days 0  
Moisture  
Dew Point 12 °F    
Average Humidity 56    
Maximum Humidity 84    
Minimum Humidity 30    
Precipitation  
Precipitation 0.00 in 0.06 in 0.77 in (1950)
Month to date precipitation 1.50  
Year to date precipitation 1.50  
Snow  
Snow 0.00 in 0.20 in 4.20 in (1895)
Month to date snowfall 5.1  
Since 1 July snowfall 11.3  
Snow Depth -    
Sea Level Pressure  
Sea Level Pressure 29.78 in    
Wind  
Wind Speed 10 mph (WNW)    
Max Wind Speed 18 mph    
Max Gust Speed 33 mph    
Visibility 9 miles    
Events Snow    
T = Trace of Precipitation, MM = Missing Value Source: NWS Daily Summary

Daily Weather History Graph

Daily Weather History Graph

Search for Another Location

Airport or City:

Trip Planner

Search our weather history database for the weather conditions in past years. The results will help you decide how hot, cold, wet, or windy it might be!

Date:

Astronomy

Jan. 25, 2014 Rise Set
Actual Time 7:12 AM CST 5:07 PM CST
Civil Twilight 6:42 AM CST 5:36 PM CST
Nautical Twilight 6:10 AM CST 6:09 PM CST
Astronomical Twilight 5:37 AM CST 6:42 PM CST
Moon 1:44 AM CST (1/25) 12:08 PM CST (1/25)
Length of Visible Light 10h 54m
Length of Day
9h 55m
Waning Crescent, 34% of the Moon is Illuminated
Jan 25
Waning Crescent
Jan 30
New
Feb 6
First Quarter
Feb 14
Full
Feb 22
Last Quarter

Hourly Weather History & Observations

Time (CST) Temp. Windchill Dew Point Humidity Pressure Visibility Wind Dir Wind Speed Gust Speed Precip Events Conditions
12:15 AM 33.4 °F 26.6 °F 21.4 °F 61% 29.62 in 10.0 mi SW 8.1 mph 16.1 mph N/A   Overcast
12:35 AM 34.3 °F 27.0 °F 21.0 °F 58% 29.61 in 10.0 mi SW 9.2 mph 21.9 mph N/A   Overcast
12:55 AM 34.0 °F 25.5 °F 23.0 °F 64% 29.60 in 10.0 mi SW 11.5 mph 20.7 mph N/A   Overcast
1:15 AM 34.0 °F 26.6 °F 24.4 °F 68% 29.58 in 10.0 mi SW 9.2 mph - N/A   Overcast
1:35 AM 34.2 °F 26.8 °F 24.8 °F 69% 29.57 in 10.0 mi SW 9.2 mph - N/A   Overcast
1:55 AM 34.2 °F 28.2 °F 25.2 °F 70% 29.58 in 10.0 mi SW 6.9 mph - N/A   Overcast
2:15 AM 34.5 °F 30.4 °F 25.3 °F 69% 29.58 in 10.0 mi SW 4.6 mph - N/A   Overcast
2:35 AM 35.1 °F 31.0 °F 24.8 °F 66% 29.58 in 10.0 mi SW 4.6 mph - N/A   Overcast
2:55 AM 36.7 °F 30.5 °F 25.0 °F 63% 29.58 in 7.0 mi WSW 8.1 mph - N/A   Overcast
3:15 AM 36.7 °F 31.2 °F 26.8 °F 67% 29.58 in 10.0 mi West 6.9 mph - N/A Snow Light Snow
3:35 AM 36.5 °F 29.7 °F 29.3 °F 75% 29.58 in 7.0 mi West 9.2 mph 16.1 mph N/A Snow Light Snow
3:55 AM 36.7 °F 28.9 °F 31.3 °F 81% 29.58 in 10.0 mi West 11.5 mph 18.4 mph N/A   Overcast
4:15 AM 36.7 °F 28.9 °F 32.0 °F 83% 29.59 in 10.0 mi West 11.5 mph 21.9 mph N/A   Overcast
4:35 AM 36.5 °F 27.4 °F 32.0 °F 84% 29.59 in 10.0 mi West 15.0 mph 24.2 mph N/A   Overcast
4:55 AM 36.5 °F 29.7 °F 31.1 °F 81% 29.60 in 10.0 mi West 9.2 mph 20.7 mph N/A   Mostly Cloudy
5:15 AM 36.0 °F 29.6 °F 30.4 °F 80% 29.60 in 10.0 mi West 8.1 mph 18.4 mph N/A   Mostly Cloudy
5:35 AM 36.0 °F 28.0 °F 29.3 °F 77% 29.61 in 10.0 mi West 11.5 mph 18.4 mph N/A   Overcast
5:55 AM 35.6 °F 27.5 °F 28.2 °F 75% 29.62 in 10.0 mi West 11.5 mph 19.6 mph N/A   Overcast
6:15 AM 35.6 °F 29.2 °F 27.7 °F 73% 29.63 in 10.0 mi WNW 8.1 mph 16.1 mph N/A   Overcast
6:35 AM 35.6 °F 28.6 °F 27.5 °F 72% 29.63 in 10.0 mi West 9.2 mph 20.7 mph N/A   Overcast
6:55 AM 34.9 °F 26.2 °F 26.6 °F 72% 29.64 in 10.0 mi West 12.7 mph 24.2 mph N/A   Mostly Cloudy
7:15 AM 34.7 °F 27.5 °F 26.6 °F 72% 29.64 in 10.0 mi West 9.2 mph 20.7 mph N/A   Mostly Cloudy
7:35 AM 34.2 °F 26.2 °F 26.6 °F 74% 29.66 in 10.0 mi West 10.4 mph 21.9 mph N/A   Scattered Clouds
7:55 AM 34.7 °F 25.5 °F 26.2 °F 71% 29.66 in 10.0 mi WNW 13.8 mph 26.5 mph N/A   Scattered Clouds
8:15 AM 35.2 °F 27.1 °F 21.6 °F 58% 29.67 in 10.0 mi WNW 11.5 mph 25.3 mph N/A   Scattered Clouds
8:35 AM 34.5 °F 24.8 °F 18.3 °F 52% 29.69 in 10.0 mi WNW 15.0 mph 26.5 mph N/A   Clear
8:55 AM 33.1 °F 21.9 °F 14.5 °F 47% 29.70 in 7.0 mi WNW 18.4 mph 27.6 mph N/A   Clear
9:15 AM 32.0 °F 21.6 °F 13.1 °F 46% 29.72 in 7.0 mi WNW 15.0 mph 33.4 mph N/A   Clear
9:35 AM 32.0 °F 22.5 °F 12.4 °F 44% 29.73 in 5.0 mi WNW 12.7 mph 26.5 mph N/A   Haze
9:55 AM 30.9 °F 20.7 °F 5.0 °F 33% 29.75 in 3.0 mi NW 13.8 mph 25.3 mph N/A   Haze
10:15 AM 31.1 °F 21.4 °F 8.8 °F 39% 29.76 in 10.0 mi West 12.7 mph 24.2 mph N/A   Clear
10:35 AM 29.5 °F 17.6 °F 1.6 °F 30% 29.78 in 1.0 mi NW 17.3 mph 33.4 mph N/A   Haze
10:55 AM 28.8 °F 19.0 °F 4.1 °F 35% 29.79 in 5.0 mi NW 11.5 mph 21.9 mph N/A Snow Light Snow
11:15 AM 29.5 °F 17.6 °F 7.3 °F 39% 29.79 in 2.5 mi WNW 17.3 mph 27.6 mph N/A   Clear
11:35 AM 29.3 °F 19.1 °F 7.5 °F 40% 29.79 in 3.0 mi WNW 12.7 mph 27.6 mph N/A Snow Light Snow
11:55 AM 26.8 °F 14.5 °F -0.4 °F 31% 29.81 in 1.0 mi WNW 16.1 mph 33.4 mph N/A Snow Light Snow
12:15 PM 26.4 °F 13.2 °F 1.0 °F 34% 29.82 in 1.2 mi NW 18.4 mph 28.8 mph N/A Snow Light Snow
12:35 PM 26.6 °F 15.2 °F 3.4 °F 37% 29.83 in 7.0 mi WNW 13.8 mph 26.5 mph N/A   Clear
12:55 PM 26.1 °F 14.0 °F 3.7 °F 38% 29.84 in 5.0 mi NW 15.0 mph 24.2 mph N/A   Haze
1:15 PM 25.3 °F 13.1 °F 2.3 °F 37% 29.85 in 2.5 mi NW 15.0 mph 27.6 mph N/A   Haze
1:35 PM 25.2 °F 13.3 °F 3.6 °F 40% 29.85 in 10.0 mi NW 13.8 mph 25.3 mph N/A Snow Light Snow
1:55 PM 25.9 °F 14.3 °F 4.1 °F 39% 29.86 in 10.0 mi WNW 13.8 mph 24.2 mph N/A   Clear
2:15 PM 24.8 °F 12.4 °F 3.7 °F 41% 29.86 in 10.0 mi NW 15.0 mph 25.3 mph N/A   Clear
2:35 PM 24.8 °F 11.9 °F 5.7 °F 44% 29.87 in 10.0 mi WNW 16.1 mph 24.2 mph N/A   Clear
2:55 PM 23.5 °F 13.0 °F 0.7 °F 37% 29.89 in 10.0 mi NW 10.4 mph 25.3 mph N/A   Clear
3:15 PM 23.2 °F 10.8 °F 1.4 °F 39% 29.90 in 10.0 mi WNW 13.8 mph 24.2 mph N/A   Clear
3:35 PM 23.0 °F 12.4 °F 3.7 °F 44% 29.91 in 10.0 mi WNW 10.4 mph 20.7 mph N/A   Clear
3:55 PM 22.5 °F 9.4 °F 2.5 °F 42% 29.92 in 10.0 mi WNW 15.0 mph 23.0 mph N/A   Clear
4:15 PM 21.9 °F 9.2 °F 0.3 °F 39% 29.93 in 10.0 mi WNW 13.8 mph 23.0 mph N/A   Clear
4:35 PM 20.3 °F 8.3 °F 0.9 °F 43% 29.93 in 10.0 mi WNW 11.5 mph 20.7 mph N/A   Clear
4:55 PM 19.4 °F 8.6 °F 2.5 °F 48% 29.94 in 10.0 mi WNW 9.2 mph - N/A   Clear
5:15 PM 19.2 °F 11.3 °F 2.8 °F 49% 29.95 in 10.0 mi WNW 5.8 mph 16.1 mph N/A   Clear
5:35 PM 18.5 °F 9.3 °F 2.3 °F 49% 29.96 in 10.0 mi WNW 6.9 mph - N/A   Clear
5:55 PM 18.0 °F 8.7 °F 2.3 °F 50% 29.97 in 10.0 mi WNW 6.9 mph - N/A   Clear
6:15 PM 17.2 °F 7.8 °F 2.3 °F 52% 29.97 in 10.0 mi WNW 6.9 mph - N/A   Clear
6:35 PM 16.7 °F 9.6 °F 2.3 °F 53% 29.97 in 10.0 mi WNW 4.6 mph - N/A   Clear
6:55 PM 16.2 °F 9.0 °F 2.3 °F 54% 29.97 in 10.0 mi WNW 4.6 mph - N/A   Clear
7:15 PM 15.6 °F 8.3 °F 2.3 °F 56% 29.97 in 10.0 mi NW 4.6 mph - N/A   Clear
7:35 PM 14.7 °F 9.0 °F 2.3 °F 58% 29.97 in 10.0 mi NW 3.5 mph - N/A   Clear
7:55 PM 14.9 °F - 1.9 °F 57% 29.97 in 10.0 mi Calm Calm - N/A   Clear
8:15 PM 14.9 °F 9.2 °F 1.9 °F 57% 29.98 in 10.0 mi West 3.5 mph - N/A   Clear
9:15 PM 14.4 °F - 3.2 °F 61% 29.96 in 10.0 mi Calm Calm - N/A   Clear
9:35 PM 16.0 °F - 3.0 °F 57% 29.96 in 10.0 mi Calm Calm - N/A   Scattered Clouds
9:55 PM 14.0 °F - 4.6 °F 66% 29.94 in 10.0 mi Calm Calm - N/A   Scattered Clouds
10:15 PM 14.2 °F - 4.1 °F 64% 29.94 in 10.0 mi Calm Calm - N/A   Clear
10:35 PM 15.1 °F - 5.7 °F 66% 29.92 in 10.0 mi Calm Calm - N/A   Mostly Cloudy
10:55 PM 16.2 °F - 6.1 °F 65% 29.90 in 10.0 mi Calm Calm - N/A   Overcast
11:15 PM 16.7 °F 11.2 °F 6.8 °F 65% 29.91 in 10.0 mi SSW 3.5 mph - N/A   Overcast
11:35 PM 17.1 °F - 7.0 °F 65% 29.90 in 10.0 mi Calm Calm - N/A   Mostly Cloudy
11:55 PM 17.6 °F - 7.7 °F 65% 29.89 in 10.0 mi Calm Calm - N/A   Mostly Cloudy